Location: Bailleul
(50.3375°N, 2.8513°E)
Time: 04:20:01
(UTC+00:00)

Cosmos 1980 - Pass Details

Date: 24 October 2021
Orbit: 839 x 847 km, 71.0° (Epoch: 01 December)

Event Time Altitude Azimuth Distance (km) Brightness Sun altitude
Exits shadow 03:22:36 - 339° (NNW) 2,953 6.5 -29.6°
Reaches altitude 10° 03:24:35 10° 353° (N) 2,471 6.2 -29.3°
Maximum altitude 03:27:55 16° 30° (NNE) 2,092 6.2 -28.8°
Drops below altitude 10° 03:31:16 10° 66° (ENE) 2,469 7.1 -28.3°
Sets 03:34:47 0° 89° (E) 3,403 8.0 -27.7°
